Regional Weather Roundup
Issued by NWS Sterling, VA

Home | Current Version | Previous Version | Text Only | Print | Product List | Glossary On
Versions: 1 2 3 4 5 6 7 8 9 10 11 12 13 14 15 16 17 18 19 20 21 22 23 24 25 26 27 28 29 30 31 32 33 34 35 36 37 38 39 40 41 42 43 44 45 46 47 48 49 50
000
ASUS41 KLWX 281310
RWRLWX

REGIONAL WEATHER ROUNDUP
NATIONAL WEATHER SERVICE BALTIMORE MD/WASHINGTON DC
900 AM EDT THU AUG 28 2014

Note: "FAIR" indicates few or no clouds below 12,000 feet
with no significant weather and/or obstructions to visibility.
 TC=TEMPERATURE CELSIUS

 * =Non NWS site. Station does not report precipitation (e.g. rain,
    snow, etc.), thunder, or fog.

DCZ001-MDZ009-015-VAZ040>042-051-053>054-281400-
WASHINGTON METRO
  /KDAA//-FT BELVOIR

CITY           SKY/WX    TMP DP  RH WIND       PRES   REMARKS
WASHINGTON NAT MOSUNNY   79  65  62 N14       29.99R
DULLES         MOSUNNY   71  62  73 NW9       30.01R
ANDREWS AFB    SUNNY     76  67  72 N10       29.98R
QUANTICO       MOSUNNY   77  66  68 N8        29.99R
COLLEGE PARK*  MOSUNNY   77  66  69 N7        29.98R
LEESBURG*      MOSUNNY   73  64  73 N9        30.03R
MANASSAS*      SUNNY     75  64  69 N10G20    30.00
GAITHERSBURG*  PTSUNNY   72  63  73 CALM      30.04R

$$

MDZ006>007-011-014-281400-
BALTIMORE METRO

CITY           SKY/WX    TMP DP  RH WIND       PRES   REMARKS
BWI AIRPORT    MOSUNNY   75  62  64 N10       29.98R
MD SCIENCE CTR   N/A     75  60  59 MISG      29.98R
MARTIN STATE   MOSUNNY   73  66  78 NW7       29.98R
ANNAPOLIS      PTSUNNY   75  67  76 NW12      29.97R
FORT MEADE*    MOSUNNY   73  64  73 N7        30.01R

$$

MDZ012-015-019>023-281400-
MARYLAND EASTERN SHORE

CITY           SKY/WX    TMP DP  RH WIND       PRES   REMARKS
OCEAN CITY     SUNNY     78  69  73 N10       29.91R
SALISBURY      SUNNY     78  68  71 N10       29.93R
BAY BRIDGE AP*   N/A     73  63  68 N13       29.97R
CAMBRIDGE*     PTSUNNY   77  63  61 N9G16     29.94S
EASTON*        MOSUNNY   77  66  69 N9        29.99R

$$

MDZ017>025-281400-
SOUTHERN MARYLAND

CITY           SKY/WX    TMP DP  RH WIND       PRES   REMARKS
PATUXENT RIVER PTSUNNY   78  69  73 N10       29.95R
ST INIGOES     SUNNY     79  67  66 VRB6      29.95R
LEONARDTOWN*   SUNNY     77  64  65 N5        29.98S

$$

MDZ003>005-281400-
NORTH CENTRAL MARYLAND

CITY           SKY/WX    TMP DP  RH WIND       PRES   REMARKS
FREDERICK*     MOSUNNY   75  66  73 N6        30.04R
HAGERSTOWN APT MOSUNNY   69  59  70 NW9       30.03R
WESTMINSTER*   MOSUNNY   70  64  83 N6        30.01S

$$

MDZ501>502-281400-
WESTERN MARYLAND

CITY           SKY/WX    TMP DP  RH WIND       PRES   REMARKS
OAKLAND*       CLOUDY    55 N/A N/A N7        30.14R FOG
CUMBERLAND*    MOSUNNY   73  59  60 NW5       30.10S

$$

VAZ025>031-281400-
SHENANDOAH VALLEY

CITY           SKY/WX    TMP DP  RH WIND       PRES   REMARKS
WINCHESTER*    SUNNY     72  61  68 N5        30.04S
STAUNTON*      SUNNY     73  66  78 CALM      30.05S

$$

WVZ021-048>050-054>055-281400-
EASTERN WEST VIRGINIA PANHANDLE

CITY           SKY/WX    TMP DP  RH WIND       PRES   REMARKS
MARTINSBURG    SUNNY     72  57  59 NW12      30.04R
PETERSBURG*    NOT AVBL

$$

VAZ036>039-050-281400-
CENTRAL FOOTHILLS

CITY           SKY/WX    TMP DP  RH WIND       PRES   REMARKS
CHARLOTTESVILL MOSUNNY   79  68  69 VRB5      30.00R
ORANGE*        SUNNY     77  68  73 N7        30.01R

$$

VAZ055>057-281400-
NORTH AND CENTRAL PIEDMONT

CITY           SKY/WX    TMP DP  RH WIND       PRES   REMARKS
FREDERICKSBRG* SUNNY     78  67  69 N9G16     29.97S
STAFFORD*      SUNNY     76  68  76 NW9       30.02S

$$

NCZ024-NYZ072-PAZ021-071-VAZ022-071-281400-
OTHER REGIONAL OBSERVATIONS

CITY           SKY/WX    TMP DP  RH WIND       PRES   REMARKS
NEW YORK CITY  SUNNY     70  54  56 VRB6      29.94R
PHILADELPHIA   MOSUNNY   72  55  55 N15       29.95R
PITTSBURGH     MOSUNNY   63  54  72 N12       30.13R
ROANOKE        PTSUNNY   75  67  76 SW3       30.07R
RICHMOND       CLOUDY    81  67  62 N12       29.97R
RALEIGH        PTSUNNY   72  66  81 SW3       30.00R

$$

ANZ530>537-281400-
MARINE OBSERVATIONS

STATION/POSITION TIME  TEMP    WIND        PRES
                       AIR SEA DIR/SP/G
                 (UTC) (F)     (DEG/KT/KT) (MB)
THOMAS PT LIGHT  1300   73 78   10/ 14/ 15 1015.5R
BALT KEY BRIDGE  1300   78     340/ 13/ 15 1014.8R
COVE POINT       1300   76      10/ 11/ 18 1014.2R
LEWISETTA        1300   77 79  350/  8/ 11 1014.0R
SOLOMONS ISLAND  1300      80                N/A
PINEY POINT      1300           10/ 12/ 15   N/A

$$



USA.gov is the U.S. government's official web portal to all federal, state and local government web resources and services.